[[{"header":{"parameterUnit":"m.s-1","parameterCategory":1,"la1":30.2991,"la2":30.254,"lo1":-89.0895,"lo2":-89.0444,"dy":0.0017,"dx":0.0017,"nx":28,"ny":28,"refTime":"2025-04-03T03:00:00:Z","depth":0,"parameterNumber":2,"parameterNumberName":"U-component_of_WINDS"},"data":[0,0,0,0,0,0,0,0,0,0,0,0,0,0,0,0,0,0,0,0,0,0,0,0,0,0,0,0,0,0,0,0,0,0,0,0,0,0,0,0,0,0,0,0,0,0,0,0,0,0,0,0,0,0,0,0,0,0,-4.2546,-4.2548,0,-4.269,-4.2692,-4.2693,-4.2722,-4.2721,-4.272,-4.2719,-4.2866,-4.2871,-4.2875,0,0,0,0,0,0,0,0,0,0,0,0,0,-4.2296,-4.2301,-4.2546,-4.2548,-4.255,-4.269,-4.2692,-4.2694,-4.2722,-4.2721,-4.272,-4.2718,-4.2864,-4.287,-4.2876,0,0,0,0,0,0,0,0,0,0,0,0,0,-4.2419,-4.2302,-4.2546,-4.2581,-4.2585,-4.269,-4.2692,-4.2694,-4.2723,-4.2721,-4.2719,-4.2718,-4.2862,-4.2869,-4.2877,-4.2956,0,0,-4.2899,-4.2903,0,0,0,0,0,0,0,0,-4.2412,-4.2428,-4.2574,-4.2578,-4.2584,-4.2686,-4.2658,-4.2782,-4.2723,-4.267,-4.2719,-4.2717,-4.2807,-4.2819,-4.285,-4.2963,-4.2969,-4.29,-4.2905,-4.2908,-4.291,0,0,0,0,0,0,0,-4.2403,-4.2422,-4.2603,-4.2576,-4.2582,-4.2589,-4.2605,-4.2681,-4.2746,-4.2675,-4.2677,-4.2694,-4.281,-4.2843,-4.2854,-4.2971,-4.29,-4.2906,-4.2911,-4.2914,-4.3158,-4.316,0,0,0,0,0,0,-4.2389,-4.2415,-4.2598,-4.2607,-4.2492,-4.2595,-4.2613,-4.2655,-4.2746,-4.2758,-4.2695,-4.2695,-4.2831,-4.2845,-4.2859,-4.2958,-4.2908,-4.2915,-4.2919,-4.3156,-4.3158,-4.316,0,0,0,0,0,0,-4.2383,-4.2405,-4.2593,-4.2512,-4.2536,-4.2601,-4.2649,-4.2659,-4.2692,-4.2761,-4.2773,-4.2717,-4.283,-4.2848,-4.2932,-4.2963,-4.2918,-4.2925,-4.3153,-4.3156,-4.3159,-4.3156,0,0,0,0,0,0,-4.2376,-4.2403,-4.2433,-4.2512,-4.254,-4.2663,-4.2651,-4.2663,-4.2705,-4.2705,-4.2784,-4.2796,-4.283,-4.2921,-4.2939,-4.2973,-4.2931,-4.3151,-4.3155,-4.3158,-4.3153,-4.3158,-4.3163,0,0,0,0,0,-4.2367,-4.2426,-4.2434,-4.2456,-4.258,-4.2665,-4.2681,-4.2719,-4.2707,-4.2738,-4.2783,-4.2793,-4.2957,-4.2929,-4.295,-4.2986,-4.3149,-4.3154,-4.3158,-4.3151,-4.3157,-4.3163,0,0,0,0,0,0,-4.2348,-4.2437,-4.2447,-4.2534,-4.2592,-4.2669,-4.271,-4.2724,-4.2786,-4.2784,-4.2829,-4.2847,-4.2928,-4.2966,-4.2933,-4.3068,-4.3052,-4.3061,-4.304,-4.3046,-4.3051,-4.3039,-4.2937,0,0,0,0,0,-4.2355,-4.2416,-4.249,-4.256,-4.2588,-4.2644,-4.2682,-4.2707,-4.2768,-4.2793,-4.2844,-4.2903,-4.2968,-4.301,-4.3073,-4.316,-4.3177,-4.3195,-4.32,-4.3203,-4.321,-4.3259,-4.3268,-4.3175,-4.3175,-4.3175,0,0,-4.2368,-4.2424,-4.246,-4.2557,-4.2605,-4.2667,-4.2664,-4.2731,-4.2777,-4.2803,-4.2885,-4.2924,-4.2994,-4.3079,-4.3119,-4.3113,-4.324,-4.3209,-4.3211,-4.3216,-4.3264,-4.3273,-4.3281,-4.3178,-4.3178,-4.3177,0,0,-4.2423,-4.2472,-4.2535,-4.2583,-4.2655,-4.2693,-4.2708,-4.2784,-4.2811,-4.2895,-4.2915,-4.2972,-4.3083,-4.3131,-4.317,-4.3246,-4.3258,-4.3266,-4.3289,-4.3336,-4.3344,-4.335,-4.3377,-4.3386,-4.3273,-4.3273,-4.3273,0,-4.243,-4.2525,-4.2566,-4.2631,-4.2674,-4.2701,-4.2765,-4.281,-4.2899,-4.2928,-4.292,-4.306,-4.3109,-4.3206,-4.3225,-4.3256,-4.3275,-4.3256,-4.3339,-4.3346,-4.3353,-4.3379,-4.3389,-4.3273,-4.3273,-4.3273,-4.3273,0,-4.253,-4.2596,-4.2638,-4.2724,-4.2771,-4.2836,-4.2887,-4.293,-4.2951,-4.2989,-4.3074,-4.3134,-4.321,-4.3235,-4.3256,-4.3336,-4.333,-4.333,-4.3315,-4.3362,-4.3387,-4.3397,-4.3274,-4.3273,-4.3273,-4.3273,0,0,-4.2576,-4.2685,-4.2699,-4.2739,-4.2821,-4.2873,-4.294,-4.3014,-4.3051,-4.3112,-4.3169,-4.3263,-4.3264,-4.3308,-4.3335,-4.3377,-4.3433,-4.3373,-4.3375,-4.3381,-4.3524,-4.3522,-4.3533,-4.3442,-4.3444,-4.3446,-4.3518,0,-4.2641,-4.2759,-4.2799,-4.2898,-4.2959,-4.2986,-4.3044,-4.3101,-4.3139,-4.3197,-4.3239,-4.3305,-4.3302,-4.3329,-4.3371,-4.3417,-4.3462,-4.3413,-4.3495,-4.3497,-4.3475,-4.3546,-4.3545,-4.361,-4.3528,-4.353,-4.3531,0,-4.2731,-4.2794,-4.2899,-4.2975,-4.3002,-4.3053,-4.3126,-4.3181,-4.3246,-4.3271,-4.3322,-4.3346,-4.3417,-4.3399,-4.3497,-4.3462,-4.3499,-4.3526,-4.353,-4.3538,-4.3516,-4.3555,-4.3632,-4.3641,-4.3547,-4.3546,-4.3545,0,-4.2754,-4.2865,-4.2942,-4.2975,-4.3065,-4.3101,-4.314,-4.3204,-4.3247,-4.3311,-4.3339,-4.341,-4.3448,-4.3503,-4.3546,-4.3529,-4.364,-4.3626,-4.3662,-4.3661,-4.3683,-4.3681,-4.3765,-4.3709,-4.3708,-4.3708,-4.3708,0,-4.2821,-4.2884,-4.2953,-4.3,-4.3072,-4.3117,-4.3187,-4.3228,-4.3285,-4.3341,-4.337,-4.3422,-4.3476,-4.3535,-4.357,-4.3646,-4.3663,-4.3685,-4.3693,-4.3682,-4.3679,-4.3705,-4.3701,-4.3711,-4.371,-4.371,-4.3709,0,-4.2857,-4.2906,-4.2992,-4.3071,-4.3092,-4.3141,-4.3209,-4.3256,-4.3296,-4.3367,-4.3386,-4.3448,-4.352,-4.3568,-4.366,-4.3683,-4.3765,-4.3773,-4.3743,-4.3747,-4.378,-4.3776,-4.3883,-4.39,-4.3833,-4.3833,-4.3834,0,-4.2896,-4.2945,-4.303,-4.3069,-4.3109,-4.3172,-4.3216,-4.3263,-4.3308,-4.3387,-4.3425,-4.3498,-4.3559,-4.3673,-4.3726,-4.3796,-4.3806,-4.3839,-4.3816,-4.3803,-4.3805,-4.3801,-4.3806,-4.3841,-4.3842,-4.3842,-4.3843,0,-4.296,-4.2982,-4.3044,-4.3116,-4.3167,-4.3226,-4.3284,-4.3315,-4.3373,-4.3422,-4.3495,-4.3542,-4.3637,-4.3709,-4.3785,-4.3826,-4.3844,-4.3849,-4.3862,-4.385,-4.383,-4.384,-4.3751,-4.3846,-4.3846,-4.3846,-4.3845,-4.3845,-4.2999,-4.3044,-4.311,-4.3179,-4.3228,-4.3282,-4.3331,-4.3377,-4.3439,-4.3519,-4.3543,-4.362,-4.3685,-4.3789,-4.3831,-4.3892,-4.3889,-4.3907,-4.3911,-4.3914,-4.3914,-4.3821,-4.3906,-4.3906,-4.3906,-4.3906,-4.3906,0,-4.3064,-4.3108,-4.3171,-4.3252,-4.3306,-4.3319,-4.3385,-4.3429,-4.3496,-4.3556,-4.3616,-4.3701,-4.3772,-4.3831,-4.3905,-4.3942,-4.3952,-4.3959,-4.3956,-4.3966,-4.3912,-4.3894,-4.395,-4.395,-4.395,-4.395,-4.395,-4.395,-4.3104,-4.318,-4.3211,-4.3312,-4.3357,-4.3432,-4.3468,-4.3519,-4.3566,-4.366,-4.3719,-4.3757,-4.3818,-4.3896,-4.3962,-4.3978,-4.4003,-4.4008,-4.4026,-4.3974,-4.3969,-4.3964,-4.3947,-4.4014,-4.4014,-4.4074,-4.4075,-4.4075]},{"header":{"parameterUnit":"m.s-1","parameterCategory":1,"la1":30.2991,"la2":30.254,"lo1":-89.0895,"lo2":-89.0444,"dy":0.0017,"dx":0.0017,"nx":28,"ny":28,"refTime":"2025-04-03T03:00:00:Z","depth":0,"parameterNumber":3,"parameterNumberName":"V-component_of_WINDS"},"data":[0,0,0,0,0,0,0,0,0,0,0,0,0,0,0,0,0,0,0,0,0,0,0,0,0,0,0,0,0,0,0,0,0,0,0,0,0,0,0,0,0,0,0,0,0,0,0,0,0,0,0,0,0,0,0,0,0,0,5.9018,5.9019,0,5.9165,5.9167,5.9169,5.916,5.9158,5.9156,5.9154,5.9304,5.931,5.9316,0,0,0,0,0,0,0,0,0,0,0,0,0,5.873,5.8735,5.9018,5.902,5.9021,5.9165,5.9167,5.9169,5.9161,5.9158,5.9156,5.9153,5.9302,5.9309,5.9316,0,0,0,0,0,0,0,0,0,0,0,0,0,5.8864,5.8737,5.9017,5.9035,5.9038,5.9165,5.9167,5.917,5.9161,5.9158,5.9155,5.9152,5.93,5.9308,5.9317,5.9437,0,0,5.9345,5.9349,0,0,0,0,0,0,0,0,5.8856,5.8874,5.903,5.9034,5.9037,5.9141,5.9121,5.9259,5.9162,5.9114,5.9154,5.915,5.9252,5.9265,5.93,5.9444,5.945,5.9346,5.9351,5.9355,5.9357,0,0,0,0,0,0,0,5.8847,5.8868,5.9076,5.9032,5.9037,5.9035,5.9051,5.9147,5.9199,5.9118,5.9118,5.9136,5.9254,5.9291,5.9303,5.9452,5.9345,5.9353,5.9359,5.9362,5.9706,5.9709,0,0,0,0,0,0,5.8834,5.886,5.9071,5.908,5.8937,5.9043,5.906,5.9111,5.9198,5.9209,5.9138,5.9135,5.9277,5.9293,5.9308,5.9457,5.9355,5.9363,5.9368,5.9702,5.9706,5.9711,0,0,0,0,0,0,5.8828,5.8853,5.9065,5.8971,5.8997,5.9051,5.9108,5.9116,5.9153,5.9214,5.9223,5.9167,5.9275,5.9296,5.9406,5.9462,5.9367,5.9375,5.9698,5.9703,5.9709,5.9753,0,0,0,0,0,0,5.8819,5.8851,5.8896,5.8972,5.9003,5.916,5.9112,5.9121,5.9169,5.9166,5.9243,5.9252,5.9274,5.9393,5.9415,5.9472,5.9382,5.9693,5.97,5.9707,5.9747,5.9759,5.977,0,0,0,0,0,5.8809,5.8901,5.8898,5.8924,5.906,5.9163,5.9181,5.9205,5.9173,5.922,5.9259,5.925,5.9452,5.9404,5.9429,5.949,5.9689,5.9698,5.9706,5.9741,5.9757,5.977,0,0,0,0,0,0,5.883,5.8911,5.8909,5.9028,5.9089,5.9162,5.9221,5.922,5.929,5.9285,5.9311,5.9328,5.944,5.9475,5.9421,5.9612,5.9567,5.958,5.9585,5.96,5.9611,5.9601,5.939,0,0,0,0,0,5.8848,5.8925,5.8992,5.9091,5.9122,5.9167,5.9212,5.9226,5.9289,5.9315,5.9362,5.9424,5.9502,5.9553,5.9627,5.9751,5.977,5.9806,5.9818,5.9827,5.9839,5.9911,5.9929,5.9738,5.9738,5.9738,0,0,5.8887,5.8941,5.8988,5.9097,5.9145,5.9225,5.9188,5.9273,5.9333,5.9327,5.9436,5.9472,5.9544,5.9662,5.9717,5.9696,5.9896,5.9838,5.9845,5.9852,5.9922,5.994,5.9956,5.9744,5.9743,5.9742,0,0,5.8999,5.9047,5.9137,5.9187,5.9262,5.9291,5.9313,5.9387,5.9411,5.952,5.9519,5.959,5.9723,5.9775,5.9819,5.9954,5.9949,5.9978,6.0039,6.0109,6.0124,6.0138,6.0189,6.0206,5.9989,5.9989,5.9989,0,5.9038,5.9159,5.9182,5.927,5.9319,5.9319,5.9411,5.9458,5.9553,5.9587,5.9562,5.9731,5.9779,5.9911,5.9945,5.9979,6.0006,5.9969,6.012,6.0134,6.0147,6.0196,6.0215,5.9992,5.9992,5.9992,5.9991,0,5.9204,5.9288,5.9351,5.9445,5.9501,5.959,5.9628,5.9682,5.9691,5.9724,5.9836,5.9894,5.9982,6.0014,6.0022,6.0149,6.0134,6.0114,6.0069,6.0168,6.0215,6.0233,5.9997,5.9996,5.9995,5.9994,0,0,5.9333,5.9441,5.9464,5.9508,5.9592,5.9657,5.9747,5.9834,5.9881,5.9947,6.0025,6.0138,6.0122,6.0172,6.0186,6.0247,6.0355,6.0221,6.0223,6.0246,6.0501,6.0517,6.0539,6.0352,6.0356,6.0358,6.0496,0,5.9456,5.9616,5.9641,5.9782,5.9861,5.9864,5.9942,6.0003,6.0036,6.0109,6.0145,6.0227,6.0197,6.0228,6.0288,6.0329,6.0407,6.0319,6.0426,6.0429,6.041,6.0563,6.0579,6.0706,6.0514,6.0517,6.052,0,5.962,5.9693,5.9842,5.9919,5.9953,6.0023,6.0107,6.0175,6.0245,6.0265,6.0323,6.0331,6.0426,6.0376,6.0508,6.0448,6.0493,6.052,6.0526,6.0538,6.0482,6.0581,6.0747,6.0767,6.0548,6.0546,6.0544,0,5.9703,5.9838,5.9946,5.9983,6.0074,6.0124,6.0164,6.023,6.0282,6.0355,6.039,6.0472,6.0518,6.0582,6.0613,6.0574,6.0745,6.0696,6.0766,6.0765,6.0803,6.08,6.098,6.0828,6.0828,6.0827,6.0827,0,5.9839,5.9931,5.9984,6.0051,6.0155,6.0184,6.0286,6.0325,6.0384,6.0459,6.0465,6.0536,6.0571,6.0648,6.0672,6.078,6.08,6.082,6.0826,6.0821,6.0819,6.0852,6.0845,6.0832,6.0831,6.083,6.0829,0,5.9949,5.9988,6.0107,6.0184,6.0206,6.0279,6.0346,6.0411,6.0444,6.054,6.0563,6.0616,6.0707,6.0744,6.0853,6.087,6.0995,6.0993,6.0972,6.0974,6.1043,6.1037,6.1252,6.1283,6.1108,6.1109,6.1111,0,6.0034,6.0106,6.0191,6.0243,6.0285,6.0367,6.0421,6.0452,6.0508,6.0595,6.065,6.074,6.0815,6.0959,6.1007,6.1092,6.1094,6.1163,6.1106,6.11,6.1098,6.1095,6.1103,6.1174,6.1176,6.1178,6.1179,0,6.0183,6.0199,6.0277,6.0362,6.0427,6.0495,6.0562,6.0603,6.0646,6.0708,6.0801,6.0859,6.0973,6.1064,6.1152,6.1194,6.1195,6.1196,6.1217,6.1214,6.12,6.1212,6.1003,6.1191,6.119,6.1189,6.1189,6.1188,6.0285,6.035,6.0421,6.0508,6.0562,6.0626,6.0692,6.0735,6.0813,6.0909,6.0923,6.1023,6.1093,6.1213,6.1258,6.1338,6.132,6.135,6.1358,6.1365,6.1371,6.1186,6.1353,6.1353,6.1353,6.1353,6.1352,0,6.0436,6.0483,6.0563,6.0657,6.0726,6.0721,6.0796,6.0854,6.0943,6.1008,6.1082,6.1191,6.1279,6.1336,6.1425,6.1478,6.1481,6.1501,6.1499,6.1509,6.138,6.1355,6.1498,6.1498,6.1498,6.1497,6.1497,6.1497,6.0523,6.0634,6.0659,6.0798,6.0844,6.0943,6.0986,6.1045,6.1098,6.122,6.1294,6.133,6.1393,6.1488,6.157,6.1584,6.1618,6.164,6.1653,6.1532,6.1517,6.1503,6.1479,6.1646,6.1646,6.1776,6.1777,6.1778]}]]